Time,TemperatureF,DewpointF,PressureIn,WindDirection,WindDirectionDegrees,WindSpeedMPH,WindSpeedGustMPH,Humidity,HourlyPrecipIn,Conditions,Clouds,dailyrainin,SoftwareType,DateUTC
2013-01-24 00:00:00,53.3,47.0,30.30,ESE,102,2.0,3.0,79,0.00,,SKC,0.00,VWS V14.01,2013-01-24 05:00:00,
2013-01-24 00:01:00,53.3,46.6,30.30,ESE,102,1.0,2.0,78,0.00,,SKC,0.00,VWS V14.01,2013-01-24 05:01:00,
2013-01-24 00:06:00,53.3,47.0,30.30,ESE,102,0.0,1.0,79,0.00,,SKC,0.00,VWS V14.01,2013-01-24 05:06:00,
2013-01-24 00:11:00,53.1,46.8,30.29,ESE,102,0.0,0.0,79,0.00,,SKC,0.00,VWS V14.01,2013-01-24 05:11:00,
2013-01-24 00:15:00,53.0,46.7,30.30,ESE,102,0.0,0.0,79,0.00,,SKC,0.00,VWS V14.01,2013-01-24 05:15:00,
2013-01-24 00:20:00,52.8,46.5,30.30,ESE,102,0.0,1.0,79,0.00,,SKC,0.00,VWS V14.01,2013-01-24 05:20:00,
2013-01-24 00:25:00,52.5,46.5,30.30,ESE,102,0.0,0.0,80,0.00,,SKC,0.00,VWS V14.01,2013-01-24 05:25:00,
2013-01-24 00:26:00,52.4,46.4,30.30,ESE,102,0.0,0.0,80,0.00,,SKC,0.00,VWS V14.01,2013-01-24 05:26:00,
2013-01-24 00:31:00,52.1,47.1,30.30,ESE,102,0.0,0.0,83,0.00,,SKC,0.00,VWS V14.01,2013-01-24 05:31:00,
2013-01-24 00:36:00,51.9,47.2,30.30,ESE,102,0.0,0.0,84,0.00,,SKC,0.00,VWS V14.01,2013-01-24 05:36:00,
2013-01-24 00:41:00,51.8,47.4,30.29,ESE,102,0.0,0.0,85,0.00,,SKC,0.00,VWS V14.01,2013-01-24 05:41:00,
2013-01-24 00:46:00,51.8,47.4,30.29,ESE,102,0.0,0.0,85,0.00,,SKC,0.00,VWS V14.01,2013-01-24 05:46:00,
2013-01-24 00:51:00,51.9,47.2,30.29,ESE,102,0.0,0.0,84,0.00,,SKC,0.00,VWS V14.01,2013-01-24 05:51:00,
2013-01-24 00:56:00,51.9,47.2,30.28,ESE,102,0.0,0.0,84,0.00,,SKC,0.00,VWS V14.01,2013-01-24 05:56:00,
2013-01-24 01:01:00,51.7,46.7,30.28,ESE,102,1.0,1.0,83,0.00,,SKC,0.00,VWS V14.01,2013-01-24 06:01:00,
2013-01-24 01:06:00,51.7,47.0,30.28,ESE,102,2.0,3.0,84,0.00,,SKC,0.00,VWS V14.01,2013-01-24 06:06:00,
2013-01-24 01:11:00,52.0,47.3,30.27,ESE,102,1.0,2.0,84,0.00,,SKC,0.00,VWS V14.01,2013-01-24 06:11:00,
2013-01-24 01:16:00,52.0,47.0,30.28,ESE,102,0.0,2.0,83,0.00,,SKC,0.00,VWS V14.01,2013-01-24 06:16:00,
2013-01-24 01:21:00,52.0,47.3,30.28,ESE,102,0.0,1.0,84,0.00,,SKC,0.00,VWS V14.01,2013-01-24 06:21:00,
2013-01-24 01:26:00,52.1,47.4,30.27,ESE,102,0.0,1.0,84,0.00,,SKC,0.00,VWS V14.01,2013-01-24 06:26:00,
2013-01-24 01:31:00,52.0,47.3,30.27,ESE,102,0.0,0.0,84,0.00,,SKC,0.00,VWS V14.01,2013-01-24 06:31:00,
2013-01-24 01:36:00,52.1,48.0,30.27,ESE,102,2.0,2.0,86,0.00,,SKC,0.00,VWS V14.01,2013-01-24 06:36:00,
2013-01-24 01:41:00,52.1,48.4,30.27,ESE,102,2.0,2.0,87,0.00,,SKC,0.00,VWS V14.01,2013-01-24 06:41:00,
2013-01-24 01:46:00,51.9,48.2,30.27,SE,142,4.0,4.0,87,0.00,,SKC,0.00,VWS V14.01,2013-01-24 06:46:00,
2013-01-24 01:51:00,51.5,48.1,30.27,South,178,3.0,4.0,88,0.00,,SKC,0.00,VWS V14.01,2013-01-24 06:51:00,
2013-01-24 01:56:00,51.3,47.9,30.26,South,178,2.0,3.0,88,0.00,,SKC,0.00,VWS V14.01,2013-01-24 06:56:00,
2013-01-24 02:01:00,51.3,47.9,30.26,South,178,2.0,3.0,88,0.00,,SKC,0.00,VWS V14.01,2013-01-24 07:01:00,
2013-01-24 02:06:00,51.4,48.0,30.26,South,178,2.0,3.0,88,0.00,,SKC,0.00,VWS V14.01,2013-01-24 07:06:00,
2013-01-24 02:11:00,51.5,48.4,30.27,South,178,0.0,0.0,89,0.00,,SKC,0.00,VWS V14.01,2013-01-24 07:11:00,
2013-01-24 02:16:00,51.6,48.5,30.26,South,178,0.0,0.0,89,0.00,,SKC,0.00,VWS V14.01,2013-01-24 07:16:00,
2013-01-24 02:21:00,51.5,48.1,30.26,South,178,1.0,1.0,88,0.00,,SKC,0.00,VWS V14.01,2013-01-24 07:21:00,
2013-01-24 02:26:00,51.3,47.9,30.26,South,178,0.0,0.0,88,0.00,,SKC,0.00,VWS V14.01,2013-01-24 07:26:00,
2013-01-24 02:31:00,51.1,47.7,30.26,South,178,0.0,0.0,88,0.00,,SKC,0.00,VWS V14.01,2013-01-24 07:31:00,
2013-01-24 02:36:00,51.0,47.6,30.26,South,178,0.0,0.0,88,0.00,,SKC,0.00,VWS V14.01,2013-01-24 07:36:00,
2013-01-24 02:41:00,51.0,47.6,30.26,South,178,0.0,1.0,88,0.00,,SKC,0.00,VWS V14.01,2013-01-24 07:41:00,
2013-01-24 02:46:00,50.9,47.8,30.25,South,178,0.0,1.0,89,0.00,,SKC,0.00,VWS V14.01,2013-01-24 07:46:00,
2013-01-24 02:51:00,51.2,48.4,30.25,South,178,1.0,1.0,90,0.00,,SKC,0.00,VWS V14.01,2013-01-24 07:51:00,
2013-01-24 02:56:00,51.2,48.4,30.25,South,178,1.0,1.0,90,0.00,,SKC,0.00,VWS V14.01,2013-01-24 07:56:00,
2013-01-24 03:01:00,51.3,48.5,30.25,South,178,1.0,2.0,90,0.00,,SKC,0.00,VWS V14.01,2013-01-24 08:01:00,
2013-01-24 03:06:00,51.3,48.5,30.25,South,178,0.0,2.0,90,0.00,,SKC,0.00,VWS V14.01,2013-01-24 08:06:00,
2013-01-24 03:11:00,51.1,48.3,30.25,South,178,0.0,2.0,90,0.00,,SKC,0.00,VWS V14.01,2013-01-24 08:11:00,
2013-01-24 03:16:00,51.1,48.3,30.25,South,178,1.0,1.0,90,0.00,,SKC,0.00,VWS V14.01,2013-01-24 08:16:00,
2013-01-24 03:21:00,51.1,48.6,30.24,South,178,1.0,1.0,91,0.00,,SKC,0.00,VWS V14.01,2013-01-24 08:21:00,
2013-01-24 03:26:00,51.2,48.7,30.25,South,178,1.0,2.0,91,0.00,,SKC,0.00,VWS V14.01,2013-01-24 08:26:00,
2013-01-24 03:31:00,51.3,48.8,30.25,South,180,1.0,2.0,91,0.00,,SKC,0.00,VWS V14.01,2013-01-24 08:31:00,
2013-01-24 03:36:00,51.3,49.1,30.25,South,180,1.0,2.0,92,0.00,,SKC,0.00,VWS V14.01,2013-01-24 08:36:00,
2013-01-24 03:41:00,51.3,49.1,30.25,South,180,2.0,2.0,92,0.00,,SKC,0.00,VWS V14.01,2013-01-24 08:41:00,
2013-01-24 03:46:00,51.1,48.9,30.25,South,185,2.0,2.0,92,0.00,,SKC,0.00,VWS V14.01,2013-01-24 08:46:00,
2013-01-24 03:51:00,50.8,48.3,30.25,West,279,1.0,2.0,91,0.00,,SKC,0.00,VWS V14.01,2013-01-24 08:51:00,
2013-01-24 03:56:00,50.4,47.9,30.25,West,279,0.0,3.0,91,0.00,,SKC,0.00,VWS V14.01,2013-01-24 08:56:00,
2013-01-24 04:01:00,50.3,47.8,30.25,West,279,0.0,1.0,91,0.00,,SKC,0.00,VWS V14.01,2013-01-24 09:01:00,
2013-01-24 04:06:00,50.1,47.3,30.25,West,279,0.0,1.0,90,0.00,,SKC,0.00,VWS V14.01,2013-01-24 09:06:00,
2013-01-24 04:11:00,50.0,47.2,30.25,West,279,0.0,2.0,90,0.00,,SKC,0.00,VWS V14.01,2013-01-24 09:11:00,
2013-01-24 04:16:00,49.9,47.1,30.25,West,279,0.0,1.0,90,0.00,,SKC,0.00,VWS V14.01,2013-01-24 09:16:00,
2013-01-24 04:21:00,49.8,47.0,30.26,West,279,0.0,1.0,90,0.00,,SKC,0.00,VWS V14.01,2013-01-24 09:21:00,
2013-01-24 04:26:00,49.5,46.7,30.25,West,279,1.0,2.0,90,0.00,,SKC,0.00,VWS V14.01,2013-01-24 09:26:00,
2013-01-24 04:31:00,49.3,46.5,30.26,West,279,1.0,2.0,90,0.00,,SKC,0.00,VWS V14.01,2013-01-24 09:31:00,
2013-01-24 04:36:00,49.1,46.0,30.26,West,279,1.0,1.0,89,0.00,,SKC,0.00,VWS V14.01,2013-01-24 09:36:00,
2013-01-24 04:41:00,49.0,45.9,30.26,West,279,1.0,1.0,89,0.00,,SKC,0.00,VWS V14.01,2013-01-24 09:41:00,
2013-01-24 04:46:00,48.9,45.5,30.26,West,279,0.0,0.0,88,0.00,,SKC,0.00,VWS V14.01,2013-01-24 09:46:00,
2013-01-24 04:51:00,48.8,45.4,30.26,West,279,0.0,0.0,88,0.00,,SKC,0.00,VWS V14.01,2013-01-24 09:51:00,
2013-01-24 04:56:00,48.5,45.4,30.26,West,279,0.0,2.0,89,0.00,,SKC,0.00,VWS V14.01,2013-01-24 09:56:00,
2013-01-24 05:01:00,48.1,45.0,30.26,West,279,2.0,2.0,89,0.00,,SKC,0.00,VWS V14.01,2013-01-24 10:01:00,
2013-01-24 05:06:00,47.7,44.9,30.26,West,279,1.0,2.0,90,0.00,,SKC,0.00,VWS V14.01,2013-01-24 10:06:00,
2013-01-24 05:11:00,47.6,44.8,30.26,West,279,0.0,1.0,90,0.00,,SKC,0.00,VWS V14.01,2013-01-24 10:11:00,
2013-01-24 05:16:00,47.4,44.9,30.26,West,279,2.0,3.0,91,0.00,,SKC,0.00,VWS V14.01,2013-01-24 10:16:00,
2013-01-24 05:21:00,47.1,44.6,30.27,West,279,2.0,3.0,91,0.00,,SKC,0.00,VWS V14.01,2013-01-24 10:21:00,
2013-01-24 05:26:00,46.8,44.3,30.27,NW,316,0.0,3.0,91,0.00,,SKC,0.00,VWS V14.01,2013-01-24 10:26:00,
2013-01-24 05:31:00,46.6,44.1,30.27,NNW,328,3.0,3.0,91,0.00,,SKC,0.00,VWS V14.01,2013-01-24 10:31:00,
2013-01-24 05:36:00,46.3,43.8,30.27,NW,326,3.0,4.0,91,0.00,,SKC,0.00,VWS V14.01,2013-01-24 10:36:00,
2013-01-24 05:41:00,46.0,43.5,30.28,NW,326,2.0,3.0,91,0.00,,SKC,0.00,VWS V14.01,2013-01-24 10:41:00,
2013-01-24 05:46:00,45.8,43.3,30.28,NW,326,0.0,2.0,91,0.00,,SKC,0.00,VWS V14.01,2013-01-24 10:46:00,
2013-01-24 05:51:00,45.5,43.0,30.27,NW,326,3.0,3.0,91,0.00,,SKC,0.00,VWS V14.01,2013-01-24 10:51:00,
2013-01-24 05:56:00,45.5,43.0,30.27,NW,326,1.0,4.0,91,0.00,,SKC,0.00,VWS V14.01,2013-01-24 10:56:00,
2013-01-24 06:01:00,45.3,42.8,30.27,NW,326,0.0,4.0,91,0.00,,SKC,0.00,VWS V14.01,2013-01-24 11:01:00,
2013-01-24 06:06:00,45.4,42.9,30.28,NW,326,0.0,2.0,91,0.00,,SKC,0.00,VWS V14.01,2013-01-24 11:06:00,
2013-01-24 06:11:00,45.5,43.0,30.28,NW,326,3.0,3.0,91,0.00,,SKC,0.00,VWS V14.01,2013-01-24 11:11:00,
2013-01-24 06:16:00,45.7,43.2,30.27,NW,326,2.0,3.0,91,0.00,,SKC,0.00,VWS V14.01,2013-01-24 11:16:00,
2013-01-24 06:21:00,45.9,43.4,30.27,NW,326,2.0,3.0,91,0.00,,SKC,0.00,VWS V14.01,2013-01-24 11:21:00,
2013-01-24 06:26:00,46.2,43.4,30.28,NW,326,1.0,1.0,90,0.00,,SKC,0.00,VWS V14.01,2013-01-24 11:26:00,
2013-01-24 06:31:00,46.3,43.5,30.28,NW,326,1.0,2.0,90,0.00,,SKC,0.00,VWS V14.01,2013-01-24 11:31:00,
2013-01-24 06:36:00,46.5,43.4,30.28,NW,326,2.0,4.0,89,0.00,,SKC,0.00,VWS V14.01,2013-01-24 11:36:00,
2013-01-24 06:41:00,46.6,43.5,30.28,NW,326,3.0,3.0,89,0.00,,SKC,0.00,VWS V14.01,2013-01-24 11:41:00,
2013-01-24 06:46:00,46.8,43.4,30.28,NW,326,0.0,3.0,88,0.00,,SKC,0.00,VWS V14.01,2013-01-24 11:46:00,
2013-01-24 06:51:00,46.8,43.4,30.28,NW,326,1.0,2.0,88,0.00,,SKC,0.00,VWS V14.01,2013-01-24 11:51:00,
2013-01-24 06:56:00,46.7,43.0,30.28,NW,326,0.0,2.0,87,0.00,,SKC,0.00,VWS V14.01,2013-01-24 11:56:00,
2013-01-24 07:01:00,46.7,43.0,30.29,NW,326,3.0,3.0,87,0.00,,SKC,0.00,VWS V14.01,2013-01-24 12:01:00,
2013-01-24 07:06:00,46.8,43.1,30.29,NW,326,1.0,2.0,87,0.00,,SKC,0.00,VWS V14.01,2013-01-24 12:06:00,
2013-01-24 07:11:00,47.0,43.0,30.29,NW,326,2.0,3.0,86,0.00,,SKC,0.00,VWS V14.01,2013-01-24 12:11:00,
2013-01-24 07:16:00,47.2,43.2,30.29,NW,326,2.0,4.0,86,0.00,,SKC,0.00,VWS V14.01,2013-01-24 12:16:00,
2013-01-24 07:21:00,47.4,43.1,30.29,NW,326,0.0,3.0,85,0.00,,SKC,0.00,VWS V14.01,2013-01-24 12:21:00,
2013-01-24 07:26:00,47.5,43.2,30.29,NW,326,1.0,3.0,85,0.00,,SKC,0.00,VWS V14.01,2013-01-24 12:26:00,
2013-01-24 07:31:00,47.6,43.0,30.28,NW,326,2.0,2.0,84,0.00,,SKC,0.00,VWS V14.01,2013-01-24 12:31:00,
2013-01-24 07:36:00,47.7,42.8,30.29,NW,326,4.0,4.0,83,0.00,,SKC,0.00,VWS V14.01,2013-01-24 12:36:00,
2013-01-24 07:41:00,48.0,43.1,30.29,NW,326,1.0,2.0,83,0.00,,SKC,0.00,VWS V14.01,2013-01-24 12:41:00,
2013-01-24 07:46:00,48.1,43.2,30.29,NW,326,3.0,4.0,83,0.00,,SKC,0.00,VWS V14.01,2013-01-24 12:46:00,
2013-01-24 07:51:00,48.4,43.2,30.29,NW,326,1.0,3.0,82,0.00,,SKC,0.00,VWS V14.01,2013-01-24 12:51:00,
2013-01-24 07:56:00,48.8,43.2,30.29,NW,326,0.0,1.0,81,0.00,,SKC,0.00,VWS V14.01,2013-01-24 12:56:00,
2013-01-24 08:01:00,49.2,43.3,30.29,NW,326,0.0,2.0,80,0.00,,SKC,0.00,VWS V14.01,2013-01-24 13:01:00,
2013-01-24 08:06:00,49.6,44.0,30.29,NW,326,1.0,1.0,81,0.00,,SKC,0.00,VWS V14.01,2013-01-24 13:06:00,
2013-01-24 08:11:00,50.1,44.5,30.29,NW,326,2.0,2.0,81,0.00,,SKC,0.00,VWS V14.01,2013-01-24 13:11:00,
2013-01-24 08:16:00,50.5,44.9,30.29,NW,324,2.0,3.0,81,0.00,,SKC,0.00,VWS V14.01,2013-01-24 13:16:00,
2013-01-24 08:21:00,50.9,45.6,30.29,NW,323,3.0,3.0,82,0.00,,SKC,0.00,VWS V14.01,2013-01-24 13:21:00,
2013-01-24 08:26:00,51.2,45.9,30.30,NW,322,3.0,3.0,82,0.00,,SKC,0.00,VWS V14.01,2013-01-24 13:26:00,
2013-01-24 08:31:00,51.6,45.6,30.30,NNW,344,1.0,2.0,80,0.00,,SKC,0.00,VWS V14.01,2013-01-24 13:31:00,
2013-01-24 08:36:00,52.0,45.4,30.30,NNW,342,2.0,3.0,78,0.00,,SKC,0.00,VWS V14.01,2013-01-24 13:36:00,
2013-01-24 08:41:00,52.3,45.3,30.31,NNW,341,1.0,4.0,77,0.00,,SKC,0.00,VWS V14.01,2013-01-24 13:41:00,
2013-01-24 08:46:00,52.3,45.3,30.31,NW,321,1.0,5.0,77,0.00,,SKC,0.00,VWS V14.01,2013-01-24 13:46:00,
2013-01-24 08:51:00,52.3,45.3,30.31,NNW,333,2.0,4.0,77,0.00,,SKC,0.00,VWS V14.01,2013-01-24 13:51:00,
2013-01-24 08:56:00,52.3,45.3,30.32,NNW,333,1.0,3.0,77,0.00,,SKC,0.00,VWS V14.01,2013-01-24 13:56:00,
2013-01-24 09:01:00,52.6,45.3,30.32,NNW,333,1.0,2.0,76,0.00,,SKC,0.00,VWS V14.01,2013-01-24 14:01:00,
2013-01-24 09:06:00,53.0,45.0,30.32,NNW,327,2.0,4.0,74,0.00,,SKC,0.00,VWS V14.01,2013-01-24 14:06:00,
2013-01-24 09:11:00,53.3,44.9,30.32,NW,326,0.0,3.0,73,0.00,,SKC,0.00,VWS V14.01,2013-01-24 14:11:00,
2013-01-24 09:16:00,53.8,45.4,30.32,NNW,327,2.0,3.0,73,0.00,,SKC,0.00,VWS V14.01,2013-01-24 14:16:00,
2013-01-24 09:21:00,54.3,45.8,30.32,NNW,329,2.0,4.0,73,0.00,,SKC,0.00,VWS V14.01,2013-01-24 14:21:00,
2013-01-24 09:26:00,54.8,46.3,30.32,NNW,329,2.0,4.0,73,0.00,,SKC,0.00,VWS V14.01,2013-01-24 14:26:00,
2013-01-24 09:31:00,55.3,46.1,30.32,NNW,327,2.0,3.0,71,0.00,,SKC,0.00,VWS V14.01,2013-01-24 14:31:00,
2013-01-24 09:36:00,55.9,45.5,30.32,NNW,331,5.0,6.0,68,0.00,,SKC,0.00,VWS V14.01,2013-01-24 14:36:00,
2013-01-24 09:41:00,56.4,45.6,30.33,NNW,327,3.0,4.0,67,0.00,,SKC,0.00,VWS V14.01,2013-01-24 14:41:00,
2013-01-24 09:46:00,56.9,45.3,30.33,NNW,333,4.0,4.0,65,0.00,,SKC,0.00,VWS V14.01,2013-01-24 14:46:00,
2013-01-24 09:51:00,57.6,44.7,30.33,NW,313,3.0,6.0,62,0.00,,SKC,0.00,VWS V14.01,2013-01-24 14:51:00,
2013-01-24 09:56:00,58.2,44.4,30.33,NNW,336,1.0,7.0,60,0.00,,SKC,0.00,VWS V14.01,2013-01-24 14:56:00,
2013-01-24 10:01:00,58.8,43.6,30.33,NNW,337,1.0,6.0,57,0.00,,SKC,0.00,VWS V14.01,2013-01-24 15:01:00,
2013-01-24 10:06:00,59.5,43.8,30.33,NNW,332,2.0,3.0,56,0.00,,SKC,0.00,VWS V14.01,2013-01-24 15:06:00,
2013-01-24 10:11:00,60.0,44.7,30.33,NW,306,1.0,3.0,57,0.00,,SKC,0.00,VWS V14.01,2013-01-24 15:11:00,
2013-01-24 10:16:00,60.5,44.7,30.33,North,350,4.0,8.0,56,0.00,,SKC,0.00,VWS V14.01,2013-01-24 15:16:00,
2013-01-24 10:21:00,61.0,44.7,30.33,NW,306,7.0,8.0,55,0.00,,SKC,0.00,VWS V14.01,2013-01-24 15:21:00,
2013-01-24 10:26:00,61.4,45.6,30.33,WNW,287,8.0,8.0,56,0.00,,SKC,0.00,VWS V14.01,2013-01-24 15:26:00,
2013-01-24 10:31:00,61.9,45.6,30.33,NNW,336,3.0,6.0,55,0.00,,SKC,0.00,VWS V14.01,2013-01-24 15:31:00,
2013-01-24 10:36:00,62.2,45.8,30.33,North,360,1.0,4.0,55,0.00,,SKC,0.00,VWS V14.01,2013-01-24 15:36:00,
2013-01-24 10:41:00,62.7,46.3,30.33,NW,321,4.0,4.0,55,0.00,,SKC,0.00,VWS V14.01,2013-01-24 15:41:00,
2013-01-24 10:46:00,63.1,46.7,30.33,NW,317,2.0,4.0,55,0.00,,SKC,0.00,VWS V14.01,2013-01-24 15:46:00,
2013-01-24 10:51:00,63.7,46.8,30.33,WNW,286,8.0,11.0,54,0.00,,SKC,0.00,VWS V14.01,2013-01-24 15:51:00,
2013-01-24 10:56:00,64.0,47.0,30.33,NNW,330,3.0,6.0,54,0.00,,SKC,0.00,VWS V14.01,2013-01-24 15:56:00,
2013-01-24 11:01:00,64.4,46.9,30.32,NW,313,5.0,8.0,53,0.00,,SKC,0.00,VWS V14.01,2013-01-24 16:01:00,
2013-01-24 11:06:00,64.7,46.7,30.32,North,9,1.0,6.0,52,0.00,,SKC,0.00,VWS V14.01,2013-01-24 16:06:00,
2013-01-24 11:11:00,65.0,47.0,30.32,NW,305,1.0,7.0,52,0.00,,SKC,0.00,VWS V14.01,2013-01-24 16:11:00,
2013-01-24 11:16:00,65.2,47.7,30.32,NW,318,2.0,5.0,53,0.00,,SKC,0.00,VWS V14.01,2013-01-24 16:16:00,
2013-01-24 11:21:00,65.5,47.4,30.31,NW,305,2.0,4.0,52,0.00,,SKC,0.00,VWS V14.01,2013-01-24 16:21:00,
2013-01-24 11:26:00,65.5,47.4,30.31,WNW,297,7.0,7.0,52,0.00,,SKC,0.00,VWS V14.01,2013-01-24 16:26:00,
2013-01-24 11:31:00,65.4,47.3,30.31,West,279,3.0,7.0,52,0.00,,SKC,0.00,VWS V14.01,2013-01-24 16:31:00,
2013-01-24 11:36:00,65.7,47.6,30.31,North,355,1.0,4.0,52,0.00,,SKC,0.00,VWS V14.01,2013-01-24 16:36:00,
2013-01-24 11:41:00,65.7,47.6,30.31,NW,304,3.0,6.0,52,0.00,,SKC,0.00,VWS V14.01,2013-01-24 16:41:00,
2013-01-24 11:46:00,66.0,47.9,30.31,West,274,5.0,6.0,52,0.00,,SKC,0.00,VWS V14.01,2013-01-24 16:46:00,
2013-01-24 11:51:00,65.9,48.3,30.31,NW,304,9.0,10.0,53,0.00,,SKC,0.00,VWS V14.01,2013-01-24 16:51:00,
2013-01-24 11:56:00,66.4,48.3,30.31,WNW,283,6.0,6.0,52,0.00,,SKC,0.00,VWS V14.01,2013-01-24 16:56:00,
2013-01-24 12:01:00,66.8,48.1,30.31,NW,312,2.0,4.0,51,0.00,,SKC,0.00,VWS V14.01,2013-01-24 17:01:00,
2013-01-24 12:06:00,67.1,47.9,30.30,WNW,293,5.0,6.0,50,0.00,,SKC,0.00,VWS V14.01,2013-01-24 17:06:00,
2013-01-24 12:11:00,67.0,47.8,30.30,WNW,285,4.0,7.0,50,0.00,,SKC,0.00,VWS V14.01,2013-01-24 17:11:00,
2013-01-24 12:16:00,67.3,48.0,30.30,West,279,2.0,7.0,50,0.00,,SKC,0.00,VWS V14.01,2013-01-24 17:16:00,
2013-01-24 12:21:00,67.6,47.2,30.29,NNE,25,2.0,5.0,48,0.00,,SKC,0.00,VWS V14.01,2013-01-24 17:21:00,
2013-01-24 12:26:00,67.3,48.6,30.29,West,277,7.0,8.0,51,0.00,,SKC,0.00,VWS V14.01,2013-01-24 17:26:00,
2013-01-24 12:31:00,67.2,48.0,30.29,West,275,5.0,5.0,50,0.00,,SKC,0.00,VWS V14.01,2013-01-24 17:31:00,
2013-01-24 12:36:00,67.4,48.1,30.28,West,279,6.0,6.0,50,0.00,,SKC,0.00,VWS V14.01,2013-01-24 17:36:00,
2013-01-24 12:41:00,67.6,47.8,30.28,WNW,283,6.0,7.0,49,0.00,,SKC,0.00,VWS V14.01,2013-01-24 17:41:00,
2013-01-24 12:46:00,67.7,48.4,30.27,WNW,293,1.0,5.0,50,0.00,,SKC,0.00,VWS V14.01,2013-01-24 17:46:00,
2013-01-24 12:51:00,68.1,48.2,30.27,West,267,7.0,9.0,49,0.00,,SKC,0.00,VWS V14.01,2013-01-24 17:51:00,
2013-01-24 12:56:00,68.1,47.7,30.26,West,276,3.0,7.0,48,0.00,,SKC,0.00,VWS V14.01,2013-01-24 17:56:00,
2013-01-24 13:01:00,68.3,47.3,30.26,West,265,8.0,9.0,47,0.00,,SKC,0.00,VWS V14.01,2013-01-24 18:01:00,
2013-01-24 13:06:00,68.3,47.3,30.26,West,273,5.0,8.0,47,0.00,,SKC,0.00,VWS V14.01,2013-01-24 18:06:00,
2013-01-24 13:11:00,68.4,46.8,30.26,WNW,285,3.0,8.0,46,0.00,,SKC,0.00,VWS V14.01,2013-01-24 18:11:00,
2013-01-24 13:16:00,68.3,46.2,30.25,West,259,5.0,6.0,45,0.00,,SKC,0.00,VWS V14.01,2013-01-24 18:16:00,
2013-01-24 13:21:00,68.3,46.2,30.25,West,269,3.0,7.0,45,0.00,,SKC,0.00,VWS V14.01,2013-01-24 18:21:00,
2013-01-24 13:26:00,68.6,47.0,30.25,WNW,284,7.0,8.0,46,0.00,,SKC,0.00,VWS V14.01,2013-01-24 18:26:00,
2013-01-24 13:31:00,68.7,46.5,30.25,West,281,7.0,10.0,45,0.00,,SKC,0.00,VWS V14.01,2013-01-24 18:31:00,
2013-01-24 13:36:00,69.0,46.8,30.24,WNW,292,7.0,8.0,45,0.00,,SKC,0.00,VWS V14.01,2013-01-24 18:36:00,
2013-01-24 13:41:00,69.5,46.7,30.24,West,280,8.0,9.0,44,0.00,,SKC,0.00,VWS V14.01,2013-01-24 18:41:00,
2013-01-24 13:46:00,69.7,46.8,30.24,West,277,7.0,9.0,44,0.00,,SKC,0.00,VWS V14.01,2013-01-24 18:46:00,
2013-01-24 13:51:00,69.8,47.5,30.24,WNW,292,2.0,4.0,45,0.00,,SKC,0.00,VWS V14.01,2013-01-24 18:51:00,
2013-01-24 13:56:00,69.9,46.4,30.24,WNW,291,5.0,8.0,43,0.00,,SKC,0.00,VWS V14.01,2013-01-24 18:56:00,
2013-01-24 14:01:00,70.0,47.7,30.24,NW,311,2.0,4.0,45,0.00,,SKC,0.00,VWS V14.01,2013-01-24 19:01:00,
2013-01-24 14:06:00,70.5,48.2,30.24,West,281,4.0,6.0,45,0.00,,SKC,0.00,VWS V14.01,2013-01-24 19:06:00,
2013-01-24 14:11:00,70.6,47.0,30.23,West,281,6.0,9.0,43,0.00,,SKC,0.00,VWS V14.01,2013-01-24 19:11:00,
2013-01-24 14:16:00,70.2,47.3,30.23,NW,304,4.0,8.0,44,0.00,,SKC,0.00,VWS V14.01,2013-01-24 19:16:00,
2013-01-24 14:21:00,70.2,47.3,30.23,West,277,8.0,10.0,44,0.00,,SKC,0.00,VWS V14.01,2013-01-24 19:21:00,
2013-01-24 14:26:00,70.4,47.5,30.23,WNW,283,4.0,7.0,44,0.00,,SKC,0.00,VWS V14.01,2013-01-24 19:26:00,
2013-01-24 14:31:00,70.3,48.0,30.23,NW,304,5.0,8.0,45,0.00,,SKC,0.00,VWS V14.01,2013-01-24 19:31:00,
2013-01-24 14:36:00,70.3,48.0,30.22,West,278,11.0,11.0,45,0.00,,SKC,0.00,VWS V14.01,2013-01-24 19:36:00,
2013-01-24 14:41:00,70.4,47.5,30.22,WNW,291,8.0,9.0,44,0.00,,SKC,0.00,VWS V14.01,2013-01-24 19:41:00,
2013-01-24 14:46:00,70.4,48.1,30.22,NW,313,5.0,5.0,45,0.00,,SKC,0.00,VWS V14.01,2013-01-24 19:46:00,
2013-01-24 14:51:00,70.8,47.2,30.22,NNW,332,3.0,6.0,43,0.00,,SKC,0.00,VWS V14.01,2013-01-24 19:51:00,
2013-01-24 14:56:00,70.9,47.9,30.22,NW,313,3.0,8.0,44,0.00,,SKC,0.00,VWS V14.01,2013-01-24 19:56:00,
2013-01-24 15:01:00,71.1,48.1,30.22,West,280,6.0,8.0,44,0.00,,SKC,0.00,VWS V14.01,2013-01-24 20:01:00,
2013-01-24 15:06:00,70.5,47.0,30.22,WNW,282,8.0,12.0,43,0.00,,SKC,0.00,VWS V14.01,2013-01-24 20:06:00,
2013-01-24 15:11:00,70.4,48.1,30.22,West,264,6.0,9.0,45,0.00,,SKC,0.00,VWS V14.01,2013-01-24 20:11:00,
2013-01-24 15:16:00,70.4,47.5,30.22,WNW,299,2.0,8.0,44,0.00,,SKC,0.00,VWS V14.01,2013-01-24 20:16:00,
2013-01-24 15:21:00,70.8,47.8,30.22,North,355,1.0,4.0,44,0.00,,SKC,0.00,VWS V14.01,2013-01-24 20:21:00,
2013-01-24 15:26:00,70.9,48.5,30.22,WNW,284,6.0,10.0,45,0.00,,SKC,0.00,VWS V14.01,2013-01-24 20:26:00,
2013-01-24 15:31:00,70.8,49.0,30.22,NNW,330,3.0,7.0,46,0.00,,SKC,0.00,VWS V14.01,2013-01-24 20:31:00,
2013-01-24 15:36:00,70.9,49.1,30.22,NW,308,5.0,7.0,46,0.00,,SKC,0.00,VWS V14.01,2013-01-24 20:36:00,
2013-01-24 15:41:00,71.1,49.3,30.22,WNW,293,4.0,5.0,46,0.00,,SKC,0.00,VWS V14.01,2013-01-24 20:41:00,
2013-01-24 15:46:00,71.0,49.2,30.22,West,281,9.0,9.0,46,0.00,,SKC,0.00,VWS V14.01,2013-01-24 20:46:00,
2013-01-24 15:51:00,70.8,49.0,30.23,WNW,284,10.0,11.0,46,0.00,,SKC,0.00,VWS V14.01,2013-01-24 20:51:00,
2013-01-24 15:56:00,70.4,49.2,30.23,NW,315,3.0,8.0,47,0.00,,SKC,0.00,VWS V14.01,2013-01-24 20:56:00,
2013-01-24 16:01:00,70.5,49.3,30.23,NNW,330,1.0,7.0,47,0.00,,SKC,0.00,VWS V14.01,2013-01-24 21:01:00,
2013-01-24 16:06:00,70.4,49.8,30.22,WNW,288,1.0,5.0,48,0.00,,SKC,0.00,VWS V14.01,2013-01-24 21:06:00,
2013-01-24 16:11:00,70.5,48.8,30.22,WNW,286,6.0,7.0,46,0.00,,SKC,0.00,VWS V14.01,2013-01-24 21:11:00,
2013-01-24 16:16:00,70.4,49.2,30.22,WNW,288,4.0,5.0,47,0.00,,SKC,0.00,VWS V14.01,2013-01-24 21:16:00,
2013-01-24 16:21:00,70.6,48.8,30.23,NW,308,4.0,5.0,46,0.00,,SKC,0.00,VWS V14.01,2013-01-24 21:21:00,
2013-01-24 16:26:00,70.8,49.6,30.23,NNW,342,4.0,5.0,47,0.00,,SKC,0.00,VWS V14.01,2013-01-24 21:26:00,
2013-01-24 16:31:00,70.9,49.7,30.23,NNW,327,3.0,3.0,47,0.00,,SKC,0.00,VWS V14.01,2013-01-24 21:31:00,
2013-01-24 16:36:00,70.9,49.1,30.22,NNW,335,2.0,3.0,46,0.00,,SKC,0.00,VWS V14.01,2013-01-24 21:36:00,
2013-01-24 16:41:00,71.0,49.8,30.23,NNW,331,4.0,5.0,47,0.00,,SKC,0.00,VWS V14.01,2013-01-24 21:41:00,
2013-01-24 16:46:00,71.0,49.8,30.23,NW,315,0.0,3.0,47,0.00,,SKC,0.00,VWS V14.01,2013-01-24 21:46:00,
2013-01-24 16:51:00,70.8,49.0,30.23,NW,315,1.0,3.0,46,0.00,,SKC,0.00,VWS V14.01,2013-01-24 21:51:00,
2013-01-24 16:56:00,70.8,49.6,30.23,WNW,301,2.0,7.0,47,0.00,,SKC,0.00,VWS V14.01,2013-01-24 21:56:00,
2013-01-24 17:01:00,70.7,50.1,30.23,NW,304,3.0,6.0,48,0.00,,SKC,0.00,VWS V14.01,2013-01-24 22:01:00,
2013-01-24 17:06:00,70.5,49.9,30.22,NW,317,5.0,8.0,48,0.00,,SKC,0.00,VWS V14.01,2013-01-24 22:06:00,
2013-01-24 17:11:00,70.3,50.3,30.22,NNW,346,0.0,5.0,49,0.00,,SKC,0.00,VWS V14.01,2013-01-24 22:11:00,
2013-01-24 17:16:00,70.1,50.1,30.22,NW,312,0.0,4.0,49,0.00,,SKC,0.00,VWS V14.01,2013-01-24 22:16:00,
2013-01-24 17:21:00,69.8,51.9,30.22,WNW,297,5.0,7.0,53,0.00,,SKC,0.00,VWS V14.01,2013-01-24 22:21:00,
2013-01-24 17:26:00,69.3,50.4,30.22,West,281,6.0,9.0,51,0.00,,SKC,0.00,VWS V14.01,2013-01-24 22:26:00,
2013-01-24 17:31:00,69.0,50.7,30.22,West,280,6.0,8.0,52,0.00,,SKC,0.00,VWS V14.01,2013-01-24 22:31:00,
2013-01-24 17:36:00,68.7,51.4,30.22,West,279,5.0,8.0,54,0.00,,SKC,0.00,VWS V14.01,2013-01-24 22:36:00,
2013-01-24 17:41:00,68.4,51.1,30.22,WNW,295,6.0,6.0,54,0.00,,SKC,0.00,VWS V14.01,2013-01-24 22:41:00,
2013-01-24 17:46:00,68.3,51.0,30.22,West,275,5.0,7.0,54,0.00,,SKC,0.00,VWS V14.01,2013-01-24 22:46:00,
2013-01-24 17:51:00,68.0,50.8,30.22,West,265,3.0,7.0,54,0.00,,SKC,0.00,VWS V14.01,2013-01-24 22:51:00,
2013-01-24 17:56:00,67.8,51.1,30.22,West,274,5.0,6.0,55,0.00,,SKC,0.00,VWS V14.01,2013-01-24 22:56:00,
2013-01-24 18:01:00,67.4,52.1,30.23,WNW,296,3.0,6.0,58,0.00,,SKC,0.00,VWS V14.01,2013-01-24 23:01:00,
2013-01-24 18:06:00,67.1,52.3,30.23,WNW,298,3.0,5.0,59,0.00,,SKC,0.00,VWS V14.01,2013-01-24 23:06:00,
2013-01-24 18:11:00,66.8,52.5,30.23,WNW,291,5.0,6.0,60,0.00,,SKC,0.00,VWS V14.01,2013-01-24 23:11:00,
2013-01-24 18:16:00,66.5,53.1,30.23,NW,304,5.0,5.0,62,0.00,,SKC,0.00,VWS V14.01,2013-01-24 23:16:00,
2013-01-24 18:21:00,66.2,53.2,30.23,WNW,298,5.0,7.0,63,0.00,,SKC,0.00,VWS V14.01,2013-01-24 23:21:00,
2013-01-24 18:26:00,65.9,53.4,30.23,WNW,295,5.0,7.0,64,0.00,,SKC,0.00,VWS V14.01,2013-01-24 23:26:00,
2013-01-24 18:31:00,65.7,53.2,30.24,WNW,284,5.0,7.0,64,0.00,,SKC,0.00,VWS V14.01,2013-01-24 23:31:00,
2013-01-24 18:36:00,65.5,53.4,30.24,WNW,285,3.0,8.0,65,0.00,,SKC,0.00,VWS V14.01,2013-01-24 23:36:00,
2013-01-24 18:41:00,65.3,53.2,30.24,NW,306,4.0,7.0,65,0.00,,SKC,0.00,VWS V14.01,2013-01-24 23:41:00,
2013-01-24 18:46:00,65.2,53.2,30.24,WNW,291,4.0,7.0,65,0.00,,SKC,0.00,VWS V14.01,2013-01-24 23:46:00,
2013-01-24 18:51:00,64.9,53.3,30.24,WNW,285,5.0,7.0,66,0.00,,SKC,0.00,VWS V14.01,2013-01-24 23:51:00,
2013-01-24 18:56:00,64.8,53.2,30.24,WNW,285,3.0,7.0,66,0.00,,SKC,0.00,VWS V14.01,2013-01-24 23:56:00,
2013-01-24 19:01:00,64.5,53.3,30.25,WNW,286,3.0,5.0,67,0.00,,SKC,0.00,VWS V14.01,2013-01-25 00:01:00,
2013-01-24 19:06:00,64.2,53.4,30.25,WNW,294,1.0,5.0,68,0.00,,SKC,0.00,VWS V14.01,2013-01-25 00:06:00,
2013-01-24 19:11:00,64.0,53.2,30.25,WNW,300,1.0,6.0,68,0.00,,SKC,0.00,VWS V14.01,2013-01-25 00:11:00,
2013-01-24 19:16:00,63.6,53.3,30.25,WNW,296,1.0,5.0,69,0.00,,SKC,0.00,VWS V14.01,2013-01-25 00:16:00,
2013-01-24 19:21:00,63.3,53.4,30.25,WNW,301,2.0,6.0,70,0.00,,SKC,0.00,VWS V14.01,2013-01-25 00:21:00,
2013-01-24 19:26:00,63.0,53.1,30.25,West,280,1.0,6.0,70,0.00,,SKC,0.00,VWS V14.01,2013-01-25 00:26:00,
2013-01-24 19:31:00,62.9,53.4,30.25,WNW,302,1.0,2.0,71,0.00,,SKC,0.00,VWS V14.01,2013-01-25 00:31:00,
2013-01-24 19:37:00,62.7,53.2,30.26,WNW,296,1.0,4.0,71,0.00,,SKC,0.00,VWS V14.01,2013-01-25 00:37:00,
2013-01-24 19:42:00,62.6,53.5,30.26,WNW,293,2.0,4.0,72,0.00,,SKC,0.00,VWS V14.01,2013-01-25 00:42:00,
2013-01-24 19:47:00,62.4,53.3,30.26,NW,304,3.0,5.0,72,0.00,,SKC,0.00,VWS V14.01,2013-01-25 00:47:00,
2013-01-24 19:52:00,62.2,53.5,30.26,NW,304,1.0,3.0,73,0.00,,SKC,0.00,VWS V14.01,2013-01-25 00:52:00,
2013-01-24 19:57:00,62.0,53.3,30.26,WNW,298,2.0,5.0,73,0.00,,SKC,0.00,VWS V14.01,2013-01-25 00:57:00,
2013-01-24 20:02:00,61.7,53.3,30.26,NW,317,1.0,4.0,74,0.00,,SKC,0.00,VWS V14.01,2013-01-25 01:02:00,
2013-01-24 20:07:00,61.4,53.0,30.26,NW,318,0.0,4.0,74,0.00,,SKC,0.00,VWS V14.01,2013-01-25 01:07:00,
2013-01-24 20:12:00,61.2,53.2,30.26,NW,309,3.0,4.0,75,0.00,,SKC,0.00,VWS V14.01,2013-01-25 01:12:00,
2013-01-24 20:17:00,61.0,53.0,30.26,WNW,282,3.0,5.0,75,0.00,,SKC,0.00,VWS V14.01,2013-01-25 01:17:00,
2013-01-24 20:22:00,60.8,52.8,30.26,WNW,299,0.0,6.0,75,0.00,,SKC,0.00,VWS V14.01,2013-01-25 01:22:00,
2013-01-24 20:27:00,60.7,53.1,30.26,WNW,288,4.0,5.0,76,0.00,,SKC,0.00,VWS V14.01,2013-01-25 01:27:00,
2013-01-24 20:32:00,60.5,52.9,30.27,WNW,302,4.0,5.0,76,0.00,,SKC,0.00,VWS V14.01,2013-01-25 01:32:00,
2013-01-24 20:37:00,60.3,53.1,30.26,NW,315,1.0,3.0,77,0.00,,SKC,0.00,VWS V14.01,2013-01-25 01:37:00,
2013-01-24 20:42:00,60.2,53.0,30.26,WNW,300,3.0,4.0,77,0.00,,SKC,0.00,VWS V14.01,2013-01-25 01:42:00,
2013-01-24 20:47:00,60.1,52.9,30.26,NW,311,4.0,5.0,77,0.00,,SKC,0.00,VWS V14.01,2013-01-25 01:47:00,
2013-01-24 20:52:00,60.0,53.1,30.27,NW,318,2.0,4.0,78,0.00,,SKC,0.00,VWS V14.01,2013-01-25 01:52:00,
2013-01-24 20:57:00,59.8,52.9,30.27,NW,315,2.0,3.0,78,0.00,,SKC,0.00,VWS V14.01,2013-01-25 01:57:00,
2013-01-24 21:02:00,59.6,52.7,30.27,West,277,1.0,7.0,78,0.00,,SKC,0.00,VWS V14.01,2013-01-25 02:02:00,
2013-01-24 21:07:00,59.5,53.0,30.27,NW,315,3.0,4.0,79,0.00,,SKC,0.00,VWS V14.01,2013-01-25 02:07:00,
2013-01-24 21:12:00,59.4,52.9,30.27,WNW,290,6.0,7.0,79,0.00,,SKC,0.00,VWS V14.01,2013-01-25 02:12:00,
2013-01-24 21:17:00,59.3,52.8,30.27,WNW,286,2.0,4.0,79,0.00,,SKC,0.00,VWS V14.01,2013-01-25 02:17:00,
2013-01-24 21:22:00,59.1,52.6,30.27,NW,310,4.0,5.0,79,0.00,,SKC,0.00,VWS V14.01,2013-01-25 02:22:00,
2013-01-24 21:27:00,59.0,52.8,30.27,NW,309,6.0,6.0,80,0.00,,SKC,0.00,VWS V14.01,2013-01-25 02:27:00,
2013-01-24 21:32:00,58.9,52.8,30.27,NW,306,4.0,5.0,80,0.00,,SKC,0.00,VWS V14.01,2013-01-25 02:32:00,
2013-01-24 21:37:00,58.9,52.8,30.27,WNW,292,5.0,5.0,80,0.00,,SKC,0.00,VWS V14.01,2013-01-25 02:37:00,
2013-01-24 21:42:00,58.8,52.7,30.27,NW,319,1.0,4.0,80,0.00,,SKC,0.00,VWS V14.01,2013-01-25 02:42:00,
2013-01-24 21:47:00,58.7,52.9,30.27,WNW,298,3.0,5.0,81,0.00,,SKC,0.00,VWS V14.01,2013-01-25 02:47:00,
2013-01-24 21:52:00,58.7,52.9,30.27,NW,305,3.0,5.0,81,0.00,,SKC,0.00,VWS V14.01,2013-01-25 02:52:00,
2013-01-24 21:57:00,58.5,52.7,30.27,NW,312,2.0,5.0,81,0.00,,SKC,0.00,VWS V14.01,2013-01-25 02:57:00,
2013-01-24 22:02:00,58.4,52.9,30.27,WNW,300,4.0,5.0,82,0.00,,SKC,0.00,VWS V14.01,2013-01-25 03:02:00,
2013-01-24 22:07:00,58.3,52.8,30.27,WNW,296,0.0,4.0,82,0.00,,SKC,0.00,VWS V14.01,2013-01-25 03:07:00,
2013-01-24 22:12:00,58.2,52.7,30.27,WNW,297,4.0,4.0,82,0.00,,SKC,0.00,VWS V14.01,2013-01-25 03:12:00,
2013-01-24 22:17:00,58.1,53.0,30.27,WNW,302,3.0,5.0,83,0.00,,SKC,0.00,VWS V14.01,2013-01-25 03:17:00,
2013-01-24 22:22:00,58.1,53.0,30.27,WNW,294,1.0,4.0,83,0.00,,SKC,0.00,VWS V14.01,2013-01-25 03:22:00,
2013-01-24 22:27:00,58.0,53.2,30.27,WNW,294,4.0,4.0,84,0.00,,SKC,0.00,VWS V14.01,2013-01-25 03:27:00,
2013-01-24 22:32:00,57.9,53.1,30.27,WNW,301,2.0,5.0,84,0.00,,SKC,0.00,VWS V14.01,2013-01-25 03:32:00,
2013-01-24 22:37:00,57.9,53.4,30.27,WNW,298,2.0,5.0,85,0.00,,SKC,0.00,VWS V14.01,2013-01-25 03:37:00,
2013-01-24 22:42:00,57.8,53.3,30.27,WNW,296,4.0,6.0,85,0.00,,SKC,0.00,VWS V14.01,2013-01-25 03:42:00,
2013-01-24 22:47:00,57.9,53.7,30.27,WNW,292,5.0,7.0,86,0.00,,SKC,0.00,VWS V14.01,2013-01-25 03:47:00,
2013-01-24 22:52:00,57.9,53.7,30.27,NW,309,3.0,5.0,86,0.00,,SKC,0.00,VWS V14.01,2013-01-25 03:52:00,
2013-01-24 22:57:00,57.9,54.1,30.27,WNW,296,4.0,4.0,87,0.00,,SKC,0.00,VWS V14.01,2013-01-25 03:57:00,
2013-01-24 23:02:00,57.9,54.1,30.27,WNW,296,4.0,4.0,87,0.00,,SKC,0.00,VWS V14.01,2013-01-25 04:02:00,
2013-01-24 23:07:00,57.9,54.1,30.27,WNW,296,3.0,4.0,87,0.00,,SKC,0.00,VWS V14.01,2013-01-25 04:07:00,
2013-01-24 23:12:00,57.6,53.8,30.27,WNW,296,3.0,4.0,87,0.00,,SKC,0.00,VWS V14.01,2013-01-25 04:12:00,
2013-01-24 23:17:00,57.4,53.9,30.27,WNW,296,2.0,4.0,88,0.00,,SKC,0.00,VWS V14.01,2013-01-25 04:17:00,
2013-01-24 23:22:00,57.4,53.9,30.27,WNW,296,3.0,4.0,88,0.00,,SKC,0.00,VWS V14.01,2013-01-25 04:22:00,
2013-01-24 23:27:00,57.4,53.9,30.27,WNW,296,3.0,3.0,88,0.00,,SKC,0.00,VWS V14.01,2013-01-25 04:27:00,
2013-01-24 23:32:00,57.4,53.9,30.27,WNW,296,4.0,5.0,88,0.00,,SKC,0.00,VWS V14.01,2013-01-25 04:32:00,
2013-01-24 23:37:00,57.4,53.9,30.27,WNW,294,4.0,5.0,88,0.00,,SKC,0.00,VWS V14.01,2013-01-25 04:37:00,
2013-01-24 23:42:00,57.3,54.1,30.28,NW,304,3.0,4.0,89,0.00,,SKC,0.00,VWS V14.01,2013-01-25 04:42:00,
2013-01-24 23:47:00,57.2,54.0,30.28,NW,315,1.0,4.0,89,0.00,,SKC,0.00,VWS V14.01,2013-01-25 04:47:00,
2013-01-24 23:52:00,57.0,53.8,30.28,NW,315,1.0,3.0,89,0.00,,SKC,0.00,VWS V14.01,2013-01-25 04:52:00,
2013-01-24 23:57:00,56.8,53.6,30.28,NW,315,0.0,2.0,89,0.00,,SKC,0.00,VWS V14.01,2013-01-25 04:57:00,